• MPC Preparation (Info)

  • MPEC 2023-F62 : 2023 FM1

    The following Minor Planet Electronic Circular may be linked-to from your own Web pages, but must not otherwise be redistributed electronically.

    A form allowing access to any MPEC is at the bottom of this page.


    Read MPEC 2023-F61 Read MPEC 2023-F63


    M.P.E.C. 2023-F62                                Issued 2023 March 20, 06:36 UT
    
         The Minor Planet Electronic Circulars contain information on unusual
             minor planets, routine data on comets and natural satellites,
             and occasional editorial announcements.  They are published
        on behalf of Division F of the International Astronomical Union by the
              Minor Planet Center, Smithsonian Astrophysical Observatory,
                              Cambridge, MA 02138, U.S.A.
    			  
                 Prepared using the Tamkin Foundation Computer Network
    
                                  MPC@CFA.HARVARD.EDU
                URL https://www.minorplanetcenter.net/    ISSN 1523-6714
    
                                    2023 FM1                                 
    
    
    Observations:
         K23F01M  C2023 03 14.21984 10 19 15.23 -03 08 14.6          20.2 GVEF062G96
         K23F01M  C2023 03 14.22544 10 19 14.06 -03 08 39.0          21.0 GVEF062G96
         K23F01M* C2023 03 16.34212310 13 39.839-05 33 31.80         21.71wUEF062F52
         K23F01M  C2023 03 16.35357810 13 37.872-05 34 15.90         21.72wUEF062F52
         K23F01M  C2023 03 16.36501910 13 35.906-05 35 00.11         21.81wUEF062F52
         K23F01M |C2023 03 17.04942 10 12 00.72 -06 16 53.0          21.7 GVEF062807
         K23F01M |C2023 03 17.05867 10 11 59.25 -06 17 27.2          21.4 GVEF062807
         K23F01M |C2023 03 17.06791 10 11 57.77 -06 18 01.3          21.5 GVEF062807
         K23F01M KC2023 03 18.23976310 09 22.490-07 28 10.40         20.95GVEF062I52
         K23F01M KC2023 03 18.24595310 09 21.620-07 28 32.30               VEF062I52
         K23F01M KC2023 03 18.25831710 09 19.770-07 29 14.40               VEF062I52
         K23F01M |C2023 03 20.11128 10 05 46.74 -09 07 06.4          21.7 GVEF062807
         K23F01M |C2023 03 20.12052 10 05 45.56 -09 07 34.4          21.8 GVEF062807
         K23F01M KC2023 03 20.12348410 05 46.10 -09 08 49.1          21.7 GVEF062H21
         K23F01M |C2023 03 20.12977 10 05 44.36 -09 08 02.3          21.7 GVEF062807
         K23F01M KC2023 03 20.13246610 05 44.98 -09 09 16.0          21.7 GVEF062H21
         K23F01M KC2023 03 20.13463810 05 44.70 -09 09 22.6          22.1 GVEF062H21
    
    Observer details:
    807 Cerro Tololo Observatory, La Serena.  Observers T. Linder, R. Holmes, L.
        Horn.  1.00-m f/10.0 astrograph + CCD.
    F52 Pan-STARRS 2, Haleakala.  Observers J. Bulger, T. Lowe, A. Schultz, I.
        Smith.  Measurers K. Chambers, S. Chastel, T. de Boer, J. Fairlamb, H.
        Gao, M. Huber, C.-C. Lin, E. Magnier, Y. Ramanjooloo, R. Wainscoat, R.
        Weryk.  1.8-m Ritchey-Chretien + CCD.
    G96 Mt. Lemmon Survey.  Observer D. Rankin.  Measurers B. Gray, D. Rankin, F.
        C. Shelly.  1.5-m reflector + 10K CCD.
    H21 Astronomical Research Observatory, Westfield.  Observer R. Holmes.
        Measurers T. Linder, R. Holmes, L. Horn.  1.3-m f/4.0 astrograph + CCD.
    I52 Steward Observatory, Mt. Lemmon Station.  Observer G. J. Leonard.
        Measurers E. J. Christensen, D. Fay, J. B. Fazekas, D. C. Fuls, A. R.
        Gibbs, A. D. Grauer, H. Groeller, J. K. Hogan, R. A. Kowalski, S. M.
        Larson, G. J. Leonard, D. Rankin, R. L. Seaman, A. Serrano, F. C. Shelly,
        K. W. Wierzchos.  1.0-m prime focus + CCD.
    
    Orbital elements:
    2023 FM1                                                 Earth MOID = 0.0867 AU
    Epoch 2023 Feb. 25.0 TT = JDT 2460000.5                 Bell                    
    M  46.66318              (2000.0)            P               Q                  
    n   0.76852726     Peri.  108.99943     -0.08013335     -0.99519598             
    a   1.1804018      Node   345.25488     +0.81109718     -0.03230242             
    e   0.1605671      Incl.   12.76712     +0.57939625     -0.09242032             
    P   1.28           H   24.73          G   0.15           U   7                  
    Residuals in seconds of arc
    230314 G96  0.7+  0.2-    230317 807  0.0   0.1+    230320 807  0.1+  0.2-
    230314 G96  0.4-  0.1+    230317 807  0.2-  0.1+    230320 H21  0.0   0.0
    230316 F52  0.0   0.0     230318 I52  0.6-  0.5+    230320 807  0.1-  0.2-
    230316 F52  0.0   0.0     230318 I52  0.1+  0.3-    230320 H21  0.1+  0.2+
    230316 F52  0.0   0.2-    230318 I52  0.3-  0.4-    230320 H21  0.0   0.2+
    230317 807  0.0   0.1+    230320 807  0.0   0.1-
    
    Ephemeris:
    2023 FM1                 a,e,i = 1.18, 0.16, 13                  q = 0.9909
    Date    TT    R. A. (2000) Decl.     Delta      r    Elong.  Phase     V
    2023 02 18    12 45 15.7 +42 32 21   0.09236 1.0539   133.5    42.9    21.3
    ...
    2023 03 05    10 55 27.3 +11 35 21   0.09686 1.0881   174.6     4.9    20.3
    ...
    2023 03 13    10 22 51.9 -01 34 46   0.1189  1.1077   162.6    15.6    21.2
    ...
    2023 03 19    10 07 50.5 -08 09 32   0.1416  1.1229   152.5    24.1    21.9
    2023 03 20    10 05 58.4 -09 01 49   0.1457  1.1254   151.1    25.3    22.0
    2023 03 21    10 04 16.0 -09 50 48   0.1500  1.1280   149.7    26.4    22.1
    ...
    2023 03 27    09 57 04.5 -13 46 53   0.1771  1.1434   142.6    32.0    22.6
    ...
    2023 04 04    09 54 01.0 -17 11 33   0.2167  1.1639   135.3    37.1    23.2
    ...
    2023 04 19    10 01 36.5 -20 37 00   0.2978  1.2019   125.5    42.8    24.2
    
    M. P. C. Staff               (C) Copyright 2023 MPC           M.P.E.C. 2023-F62
    


    Read MPEC 2023-F61 Read MPEC 2023-F63


    MPEC number:

    Enter an MPEC number in one of the following forms:

    • 1997-B01 (the full form)
    • J97B01 (the packed version of the full form)
    • B01 (the abbreviated form)